sat.trackr.live / text

‹ back to catalog

LEMUR-2-HCS-BAZUS

NORAD 67388 · 2026-004AB

PAYLOAD ACTIVE UNKNOWN

§ Identity

Operator
Country
US
Launch date
2026-01-11
Launch site
AFWTR
Launch vehicle
Mass (kg)
RCS (m²)

Purposes: earth_obs

External: N2YO · Heavens-Above · Gunter

§ Orbital elements

Epoch: 2026-09-19T22:51:45.179136Z

Period
96.60 min
Inclination
97.8090°
Eccentricity
0.0003988
Mean motion
14.90693405 rev/d
Perigee alt
593.0 km
Apogee alt
598.6 km
Semi-major
6,973.9 km
B*
3.1386e-4
RAAN
260.8235°
Arg perigee
115.2420°
Mean anomaly
244.9212°
Rev number
3,742

§ Raw data

LEMUR-2-HCS-BAZUS1 67388U 26004AB  26262.95260624  .00003024  00000+0  31386-3 0  99982 67388  97.8090 260.8235 0003988 115.2420 244.9212 14.90693405 37427

JSON: /api/v1/satellites/67388 · /tle

For live sub-satellite position, see the globe view (requires WebGL).

§ Visibility from observer

Set your observer location to see the next 7 days of passes ≥ 10°. The values pass through the URL so the page stays shareable.

No JS? Fill the form by hand. The geolocation button needs JavaScript.